User: anonymous   Login
Location: San Francisco
(37.7750°N, 122.4180°W)
Time: 00:01:51
(UTC-07:00)
Language:

GP-B - Orbit

View from above orbital plane
View from above orbital plane
View from above satellite
View from above satellite

Ground track
Ground track

The orbit data is extracted from the following two-line orbital elements,

1 28230U 04014A   14297.60211180  .00000963  00000-0  13241-3 0  1990
2 28230 089.8803 138.2096 0002733 088.4481 271.7054 14.77691355566304
Epoch (UTC): 24 October 2014 14:27:02
Eccentricity: 0.0002733
inclination: 89.8803°
perigee height: 635 km
apogee height: 638 km
right ascension of ascending node: 138.2096°
argument of perigee: 88.4481°
revolutions per day: 14.77691355
mean anomaly at epoch: 271.7054°
orbit number at epoch: 56630

The dashed part of the orbit path shows where the satellite is in the earth's shadow,  

DLR